GW4629 Weather Reports


Display with metric or nautical units.
time (UTC)temp
F
wind
direction
speed
MPH
gust
MPH
rain 1hr
in
rain 24hr
in
rain mn
in
humidity
%
barometer
mb
20260507192438 51 82 9.0 13.0 0.00 0.00 0.00 99 1018.7
20260507191936 51 82 9.0 13.0 0.00 0.00 0.00 99 1018.7
20260507191431 49 97 21.0 24.0 0.00 0.00 0.00 99 1018.4
20260507190928 49 97 21.0 24.0 0.00 0.00 0.00 99 1018.4
20260507190426 49 121 24.0 30.0 0.00 0.00 0.00 99 1018.4
20260507185925 49 121 24.0 30.0 0.00 0.00 0.00 99 1018.4
20260507185421 50 144 16.0 19.0 0.00 0.00 0.00 99 1018.8
20260507184918 49 156 21.0 23.0 0.00 0.00 0.00 99 1018.6
20260507184416 49 156 21.0 23.0 0.00 0.00 0.00 99 1018.6
20260507183913 49 96 14.0 16.0 0.00 0.00 0.00 99 1018.6
20260507183410 49 96 14.0 16.0 0.00 0.00 0.00 99 1018.6
20260507182908 49 82 14.0 18.0 0.00 0.00 0.00 99 1018.7
20260507182403 49 82 14.0 18.0 0.00 0.00 0.00 99 1018.7
20260507181900 49 116 14.0 19.0 0.00 0.00 0.00 99 1018.8
20260507181355 49 116 14.0 19.0 0.00 0.00 0.00 99 1018.8
20260507180853 49 93 16.0 19.0 0.00 0.00 0.00 99 1018.8
20260507180349 49 93 16.0 19.0 0.00 0.00 0.00 99 1018.8
20260507175845 49 59 9.0 13.0 0.00 0.00 0.00 99 1018.7
20260507175342 49 59 9.0 13.0 0.00 0.00 0.00 99 1018.7
20260507174840 48 60 11.0 15.0 0.00 0.00 0.00 99 1018.9
20260507174337 48 60 11.0 15.0 0.00 0.00 0.00 99 1018.9
20260507173834 48 105 12.0 15.0 0.00 0.00 0.00 99 1019.1
20260507173331 48 105 12.0 15.0 0.00 0.00 0.00 99 1019.1
20260507172828 48 117 20.0 23.0 0.00 0.00 0.00 99 1018.6
20260507172325 48 117 20.0 23.0 0.00 0.00 0.00 99 1018.6
20260507171820 48 76 15.0 17.0 0.00 0.00 0.00 99 1018.8
20260507171317 48 76 15.0 17.0 0.00 0.00 0.00 99 1018.8
20260507170814 48 121 17.0 21.0 0.00 0.00 0.00 99 1018.3
20260507170311 48 121 17.0 21.0 0.00 0.00 0.00 99 1018.3
20260507165807 48 80 25.0 30.0 0.00 0.00 0.00 99 1018.3
20260507165306 48 80 25.0 30.0 0.00 0.00 0.00 99 1018.3
20260507164759 47 99 17.0 19.0 0.00 0.00 0.00 99 1018.6
20260507164256 47 99 17.0 19.0 0.00 0.00 0.00 99 1018.6
20260507163753 48 115 21.0 22.0 0.00 0.00 0.00 99 1018.9
20260507163251 48 115 21.0 22.0 0.00 0.00 0.00 99 1018.9
20260507162747 48 72 16.0 19.0 0.00 0.00 0.00 99 1018.7
20260507162243 48 72 16.0 19.0 0.00 0.00 0.00 99 1018.7
20260507161740 47 132 19.0 22.0 0.00 0.00 0.00 99 1018.4
20260507161237 47 132 19.0 22.0 0.00 0.00 0.00 99 1018.4
20260507160732 47 114 16.0 18.0 0.00 0.00 0.00 99 1018.8
20260507160229 47 114 16.0 18.0 0.00 0.00 0.00 99 1018.8
20260507155725 46 155 16.0 17.0 0.00 0.00 0.00 99 1018.4
20260507155221 46 155 16.0 17.0 0.00 0.00 0.00 99 1018.4
20260507154718 46 89 15.0 21.0 0.00 0.00 0.00 99 1018.9
20260507154216 46 89 15.0 21.0 0.00 0.00 0.00 99 1018.9
20260507153712 47 155 5.0 6.0 0.00 0.00 0.00 99 1019.2
20260507153208 47 155 5.0 6.0 0.00 0.00 0.00 99 1019.2
20260507152705 46 79 7.0 11.0 0.00 0.00 0.00 99 1019.1
20260507152201 46 79 7.0 11.0 0.00 0.00 0.00 99 1019.1
20260507151657 45 127 9.0 10.0 0.00 0.00 0.00 99 1019.4
20260507151154 45 127 9.0 10.0 0.00 0.00 0.00 99 1019.4
20260507150651 45 140 9.0 13.0 0.00 0.00 0.00 99 1019.2
20260507150148 45 140 9.0 13.0 0.00 0.00 0.00 99 1019.2
20260507145643 44 164 10.0 13.0 0.00 0.00 0.00 99 1019.1
20260507145141 44 164 10.0 13.0 0.00 0.00 0.00 99 1019.1
20260507144637 44 123 12.0 14.0 0.00 0.00 0.00 99 1018.8
20260507144135 44 123 12.0 14.0 0.00 0.00 0.00 99 1018.8
20260507143631 44 94 12.0 13.0 0.00 0.00 0.00 99 1018.8
20260507143129 44 94 12.0 13.0 0.00 0.00 0.00 99 1018.8
20260507142624 43 90 17.0 19.0 0.00 0.00 0.00 99 1018.9
20260507142121 43 90 17.0 19.0 0.00 0.00 0.00 99 1018.9
20260507141617 43 93 9.0 9.0 0.00 0.00 0.00 99 1018.8
20260507141114 43 93 9.0 9.0 0.00 0.00 0.00 99 1018.8
20260507140611 42 82 10.0 11.0 0.00 0.00 0.00 99 1018.8
20260507140108 42 82 10.0 11.0 0.00 0.00 0.00 99 1018.8
20260507135605 41 109 8.0 9.0 0.00 0.00 0.00 99 1019.2
20260507135103 41 109 8.0 9.0 0.00 0.00 0.00 99 1019.2
20260507134559 40 80 7.0 8.0 0.00 0.00 0.00 99 1019.1
20260507134055 40 80 7.0 8.0 0.00 0.00 0.00 99 1019.1
20260507133551 40 67 12.0 13.0 0.00 0.00 0.00 99 1018.8
20260507133049 40 67 12.0 13.0 0.00 0.00 0.00 99 1018.8
20260507132546 39 118 10.0 11.0 0.00 0.00 0.00 99 1019.2
20260507132042 39 118 10.0 11.0 0.00 0.00 0.00 99 1019.2
20260507131539 39 96 12.0 14.0 0.00 0.00 0.00 99 1018.7
20260507131037 39 96 12.0 14.0 0.00 0.00 0.00 99 1018.7
20260507130533 39 90 9.0 10.0 0.00 0.00 0.00 99 1018.8
20260507130031 39 90 9.0 10.0 0.00 0.00 0.00 99 1018.8
20260507125529 38 97 11.0 13.0 0.00 0.00 0.00 99 1018.6
20260507125026 38 97 11.0 13.0 0.00 0.00 0.00 99 1018.6
20260507124523 38 81 12.0 14.0 0.00 0.00 0.00 99 1018.7
20260507124020 38 81 12.0 14.0 0.00 0.00 0.00 99 1018.7
20260507123519 38 110 11.0 15.0 0.00 0.00 0.00 99 1018.8
20260507123015 38 110 11.0 15.0 0.00 0.00 0.00 99 1018.8
20260507122510 39 112 12.0 16.0 0.00 0.00 0.00 99 1018.4
20260507122007 39 112 12.0 16.0 0.00 0.00 0.00 99 1018.4
20260507121502 39 81 11.0 13.0 0.00 0.00 0.00 99 1018.6
20260507120958 39 81 11.0 13.0 0.00 0.00 0.00 99 1018.6
20260507120454 40 99 14.0 16.0 0.00 0.00 0.00 99 1018.6
20260507115951 40 99 14.0 16.0 0.00 0.00 0.00 99 1018.6
20260507115448 38 103 13.0 15.0 0.00 0.00 0.00 99 1018.6
20260507114943 38 103 13.0 15.0 0.00 0.00 0.00 99 1018.6
20260507114440 39 96 15.0 17.0 0.00 0.00 0.00 99 1018.3
20260507113937 39 96 15.0 17.0 0.00 0.00 0.00 99 1018.3
20260507113434 39 75 14.0 16.0 0.00 0.00 0.00 99 1018.4
20260507112932 39 75 14.0 16.0 0.00 0.00 0.00 99 1018.4
20260507112429 39 119 21.0 24.0 0.00 0.00 0.00 99 1018.1
20260507111926 39 119 21.0 24.0 0.00 0.00 0.00 99 1018.1
20260507111423 39 112 17.0 21.0 0.00 0.00 0.00 99 1018.2
20260507110919 39 112 17.0 21.0 0.00 0.00 0.00 99 1018.2
20260507110416 39 104 18.0 22.0 0.00 0.00 0.00 99 1018.4
20260507105913 39 104 18.0 22.0 0.00 0.00 0.00 99 1018.4
20260507105409 39 129 15.0 18.0 0.00 0.00 0.00 99 1018.1
20260507104906 39 129 15.0 18.0 0.00 0.00 0.00 99 1018.1
20260507104403 39 93 20.0 22.0 0.00 0.00 0.00 99 1018.1
20260507103859 39 93 20.0 22.0 0.00 0.00 0.00 99 1018.1
20260507103356 39 103 18.0 21.0 0.00 0.00 0.00 99 1017.9
20260507102852 39 103 18.0 21.0 0.00 0.00 0.00 99 1017.9
20260507102348 38 139 15.0 16.0 0.00 0.00 0.00 99 1018.3
20260507101844 38 139 15.0 16.0 0.00 0.00 0.00 99 1018.3
20260507101344 38 129 16.0 17.0 0.00 0.00 0.00 99 1018.6
20260507100842 38 129 16.0 17.0 0.00 0.00 0.00 99 1018.6
20260507100340 38 84 19.0 21.0 0.00 0.00 0.00 99 1018.6
20260507095838 38 84 19.0 21.0 0.00 0.00 0.00 99 1018.6
20260507095334 38 103 18.0 21.0 0.00 0.00 0.00 99 1018.2
20260507094831 38 103 18.0 21.0 0.00 0.00 0.00 99 1018.2
20260507093745 38 152 15.0 18.0 0.00 0.00 0.00 99 1018.4
20260507093243 38 152 15.0 18.0 0.00 0.00 0.00 99 1018.4
20260507092741 37 147 14.0 16.0 0.00 0.00 0.00 99 1018.4
20260507092236 37 147 14.0 16.0 0.00 0.00 0.00 99 1018.4
20260507091733 38 126 19.0 21.0 0.00 0.00 0.00 99 1018.4
20260507091230 38 126 19.0 21.0 0.00 0.00 0.00 99 1018.4
20260507090725 37 77 19.0 22.0 0.00 0.00 0.00 99 1018.3
20260507090222 37 77 19.0 22.0 0.00 0.00 0.00 99 1018.3
20260507085719 37 123 15.0 21.0 0.00 0.00 0.00 99 1018.7
20260507085216 37 123 15.0 21.0 0.00 0.00 0.00 99 1018.7
20260507084713 37 104 17.0 19.0 0.00 0.00 0.00 99 1018.4
20260507084209 37 104 17.0 19.0 0.00 0.00 0.00 99 1018.4
20260507083707 38 88 17.0 21.0 0.00 0.00 0.00 99 1018.2
20260507083203 38 88 17.0 21.0 0.00 0.00 0.00 99 1018.2
20260507082659 37 92 19.0 21.0 0.00 0.00 0.00 99 1018.3
20260507082155 37 92 19.0 21.0 0.00 0.00 0.00 99 1018.3
20260507081652 37 87 20.0 23.0 0.00 0.00 0.00 99 1018.6
20260507081148 37 87 20.0 23.0 0.00 0.00 0.00 99 1018.6
20260507080645 37 96 19.0 22.0 0.00 0.00 0.00 99 1018.3
20260507080142 37 96 19.0 22.0 0.00 0.00 0.00 99 1018.3
20260507075642 37 100 21.0 23.0 0.00 0.00 0.00 99 1018.4
20260507075139 37 100 21.0 23.0 0.00 0.00 0.00 99 1018.4
20260507074636 37 88 19.0 25.0 0.00 0.00 0.00 99 1018.4
20260507074134 37 88 19.0 25.0 0.00 0.00 0.00 99 1018.4
20260507073630 37 101 17.0 21.0 0.00 0.00 0.00 99 1018.8
20260507073126 37 101 17.0 21.0 0.00 0.00 0.00 99 1018.8
20260507072624 36 77 22.0 25.0 0.00 0.00 0.00 99 1018.6
20260507072121 36 77 22.0 25.0 0.00 0.00 0.00 99 1018.6
20260507071619 37 111 19.0 22.0 0.00 0.00 0.00 99 1018.6
20260507071115 37 111 19.0 22.0 0.00 0.00 0.00 99 1018.6
20260507070612 36 112 23.0 29.0 0.00 0.00 0.00 99 1018.4
20260507070109 36 112 23.0 29.0 0.00 0.00 0.00 99 1018.4
20260507065605 36 96 24.0 29.0 0.00 0.00 0.00 99 1018.7
20260507065103 36 96 24.0 29.0 0.00 0.00 0.00 99 1018.7
20260507064600 37 94 23.0 24.0 0.00 0.00 0.00 99 1018.9
20260507064059 37 94 23.0 24.0 0.00 0.00 0.00 99 1018.9
20260507063556 36 127 20.0 23.0 0.00 0.00 0.00 99 1019.2
20260507063053 36 127 20.0 23.0 0.00 0.00 0.00 99 1019.2
20260507062549 36 82 17.0 19.0 0.00 0.00 0.00 99 1019.1
20260507062047 36 82 17.0 19.0 0.00 0.00 0.00 99 1019.1
20260507061544 37 92 13.0 16.0 0.00 0.00 0.00 99 1019.6
20260507061042 37 92 13.0 16.0 0.00 0.00 0.00 99 1019.6
20260507060540 36 97 20.0 22.0 0.00 0.21 0.21 99 1019.6
20260507060037 36 97 20.0 22.0 0.00 0.21 0.21 99 1019.6
20260507055531 36 98 19.0 22.0 0.00 0.21 0.21 99 1019.4
20260507055028 36 98 19.0 22.0 0.00 0.21 0.21 99 1019.4
20260507054524 37 95 16.0 21.0 0.00 0.21 0.21 99 1019.3
20260507054021 37 95 16.0 21.0 0.00 0.21 0.21 99 1019.3
20260507053519 37 80 25.0 30.0 0.00 0.21 0.21 99 1018.9
20260507053018 37 80 25.0 30.0 0.00 0.21 0.21 99 1018.9
20260507052515 37 84 26.0 30.0 0.00 0.21 0.21 99 1018.9
20260507052012 37 84 26.0 30.0 0.00 0.21 0.21 99 1018.9
20260507051509 36 67 20.0 24.0 0.00 0.21 0.21 99 1018.9
20260507051006 36 67 20.0 24.0 0.00 0.21 0.21 99 1018.9
20260507050502 36 81 16.0 19.0 0.00 0.21 0.21 99 1019.2
20260507045959 36 81 16.0 19.0 0.00 0.21 0.21 99 1019.2
20260507045455 36 63 18.0 22.0 0.00 0.21 0.21 99 1019.1
20260507044953 36 63 18.0 22.0 0.00 0.21 0.21 99 1019.1
20260507044450 35 107 18.0 22.0 0.00 0.21 0.21 99 1019.2
20260507043946 35 107 18.0 22.0 0.00 0.21 0.21 99 1019.2
20260507043442 36 124 18.0 22.0 0.00 0.21 0.21 99 1018.9
20260507042938 36 124 18.0 22.0 0.00 0.21 0.21 99 1018.9
20260507042435 35 119 21.0 26.0 0.00 0.21 0.21 99 1018.6
20260507041931 35 119 21.0 26.0 0.00 0.21 0.21 99 1018.6
20260507041428 35 138 21.0 26.0 0.00 0.21 0.21 99 1018.8
20260507040926 35 138 21.0 26.0 0.00 0.21 0.21 99 1018.8
20260507040421 35 104 20.0 27.0 0.00 0.21 0.21 99 1018.7
20260507035917 35 104 20.0 27.0 0.00 0.21 0.21 99 1018.7
20260507035414 36 87 12.0 15.0 0.00 0.21 0.21 99 1019.1
20260507034911 36 87 12.0 15.0 0.00 0.21 0.21 99 1019.1
20260507034408 36 133 16.0 22.0 0.00 0.21 0.21 99 1018.9
20260507033906 36 133 16.0 22.0 0.00 0.21 0.21 99 1018.9
20260507033403 34 134 23.0 25.0 0.00 0.21 0.21 99 1018.4
20260507032900 34 134 23.0 25.0 0.00 0.21 0.21 99 1018.4
20260507032357 32 111 9.0 10.0 0.00 0.21 0.21 99 1018.8
20260507031853 32 111 9.0 10.0 0.00 0.21 0.21 99 1018.8
20260507031350 32 155 11.0 13.0 0.00 0.21 0.21 99 1018.8
20260507030846 32 155 11.0 13.0 0.00 0.21 0.21 99 1018.8
20260507030344 31 120 11.0 14.0 0.00 0.21 0.21 99 1018.8
20260507025840 31 120 11.0 14.0 0.00 0.21 0.21 99 1018.8
20260507025338 31 91 11.0 13.0 0.00 0.21 0.21 99 1018.9
20260507024836 31 91 11.0 13.0 0.00 0.21 0.21 99 1018.9
20260507024333 30 79 7.0 8.0 0.00 0.21 0.21 99 1019.2
20260507023828 30 79 7.0 8.0 0.00 0.21 0.21 99 1019.2
20260507023325 30 156 9.0 11.0 0.00 0.21 0.21 99 1018.9
20260507022822 30 156 9.0 11.0 0.00 0.21 0.21 99 1018.9
20260507022319 30 66 1.0 1.0 0.00 0.21 0.21 99 1018.9
20260507021815 30 66 1.0 1.0 0.00 0.21 0.21 99 1018.9
20260507021311 29 81 2.0 2.0 0.00 0.21 0.21 99 1018.9
20260507020809 29 81 2.0 2.0 0.00 0.21 0.21 99 1018.9
20260507020305 28 218 1.0 1.0 0.00 0.21 0.21 99 1018.6
20260507015802 28 218 1.0 1.0 0.00 0.21 0.21 99 1018.6
20260507015300 29 85 1.0 1.0 0.00 0.21 0.21 99 1018.8
20260507014757 29 85 1.0 1.0 0.00 0.21 0.21 99 1018.8
20260507014253 31 129 0.0 0.0 0.00 0.21 0.21 99 1018.8
20260507013749 31 129 0.0 0.0 0.00 0.21 0.21 99 1018.8
20260507013247 31 146 0.0 0.0 0.00 0.21 0.21 99 1018.9
20260507012744 31 146 0.0 0.0 0.00 0.21 0.21 99 1018.9
20260507012239 30 149 0.0 0.0 0.00 0.21 0.21 99 1018.8
20260507011737 30 149 0.0 0.0 0.00 0.21 0.21 99 1018.8
20260507011233 30 146 0.0 0.0 0.00 0.21 0.21 99 1018.8
20260507010733 30 178 1.0 1.0 0.00 0.21 0.21 99 1018.9
20260507010229 30 178 1.0 1.0 0.00 0.21 0.21 99 1018.9
20260507005727 30 231 2.0 2.0 0.00 0.21 0.21 99 1018.8
20260507005223 30 231 2.0 2.0 0.00 0.21 0.21 99 1018.8
20260507004719 30 253 2.0 3.0 0.00 0.21 0.21 99 1018.8
20260507004218 30 253 2.0 3.0 0.00 0.21 0.21 99 1018.8
20260507003713 32 168 2.0 3.0 0.00 0.21 0.21 99 1018.8
20260507003214 32 168 2.0 3.0 0.00 0.21 0.21 99 1018.8
20260507002710 32 166 0.0 1.0 0.00 0.21 0.21 99 1018.7
20260507002206 32 166 0.0 1.0 0.00 0.21 0.21 99 1018.7
20260507001703 32 205 2.0 2.0 0.00 0.21 0.21 99 1018.8
20260507001200 32 205 2.0 2.0 0.00 0.21 0.21 99 1018.8
20260507000656 32 170 2.0 2.0 0.00 0.21 0.21 99 1018.7
20260507000152 32 170 2.0 2.0 0.00 0.21 0.21 99 1018.7
20260506235650 32 145 1.0 1.0 0.00 0.21 0.21 99 1018.9
20260506235145 32 145 1.0 1.0 0.00 0.21 0.21 99 1018.9
20260506234642 32 178 1.0 1.0 0.00 0.21 0.21 99 1018.9
20260506234139 32 178 1.0 1.0 0.00 0.21 0.21 99 1018.9
20260506233636 33 184 1.0 2.0 0.00 0.21 0.21 99 1019.1
20260506233133 33 184 1.0 2.0 0.00 0.21 0.21 99 1019.1
20260506232629 33 220 1.0 1.0 0.00 0.21 0.21 99 1019.1
20260506232125 33 220 1.0 1.0 0.00 0.21 0.21 99 1019.1
20260506231622 33 135 1.0 1.0 0.00 0.21 0.21 99 1019.1
20260506231120 33 135 1.0 1.0 0.00 0.21 0.21 99 1019.1
20260506230617 33 124 0.0 0.0 0.00 0.21 0.21 99 1018.7
20260506230114 33 124 0.0 0.0 0.00 0.21 0.21 99 1018.7
20260506225610 33 96 0.0 0.0 0.00 0.21 0.21 99 1018.8
20260506225107 33 96 0.0 0.0 0.00 0.21 0.21 99 1018.8
20260506224604 33 186 0.0 1.0 0.00 0.21 0.21 99 1018.8
20260506224100 33 186 0.0 1.0 0.00 0.21 0.21 99 1018.8
20260506223556 32 192 1.0 1.0 0.00 0.21 0.21 99 1018.9
20260506223053 32 192 1.0 1.0 0.00 0.21 0.21 99 1018.9
20260506222550 32 161 2.0 2.0 0.00 0.21 0.21 99 1018.9
20260506222046 32 161 2.0 2.0 0.00 0.21 0.21 99 1018.9
20260506221544 32 177 0.0 1.0 0.00 0.21 0.21 99 1018.9
20260506221042 32 177 0.0 1.0 0.00 0.21 0.21 99 1018.9
20260506220537 32 218 2.0 2.0 0.00 0.21 0.21 99 1019.1
20260506220033 32 218 2.0 2.0 0.00 0.21 0.21 99 1019.1
20260506215530 32 261 1.0 1.0 0.00 0.21 0.21 99 1019.1
20260506215026 32 261 1.0 1.0 0.00 0.21 0.21 99 1019.1
20260506214523 31 19 2.0 2.0 0.00 0.21 0.21 99 1019.2
20260506214020 31 19 2.0 2.0 0.00 0.21 0.21 99 1019.2
20260506213518 32 283 4.0 4.0 0.00 0.21 0.21 99 1019.6
20260506213015 32 283 4.0 4.0 0.00 0.21 0.21 99 1019.6
20260506212511 32 15 2.0 2.0 0.00 0.21 0.21 99 1019.6
20260506212007 32 15 2.0 2.0 0.00 0.21 0.21 99 1019.6
20260506211503 32 135 1.0 1.0 0.00 0.21 0.21 99 1019.6
20260506211000 32 135 1.0 1.0 0.00 0.21 0.21 99 1019.6
20260506210456 31 60 2.0 2.0 0.00 0.21 0.21 99 1019.7
20260506205953 31 60 2.0 2.0 0.00 0.21 0.21 99 1019.7
20260506205449 31 268 3.0 3.0 0.00 0.21 0.21 99 1019.9
20260506204945 31 268 3.0 3.0 0.00 0.21 0.21 99 1019.9
20260506204443 30 340 1.0 2.0 0.00 0.21 0.21 99 1019.7
20260506203941 30 340 1.0 2.0 0.00 0.21 0.21 99 1019.7
20260506203438 29 257 4.0 4.0 0.12 0.21 0.21 99 1019.9
20260506202935 29 257 4.0 4.0 0.12 0.21 0.21 99 1019.9
20260506202432 29 277 6.0 7.0 0.05 0.19 0.19 99 1019.8
20260506201928 29 277 6.0 7.0 0.05 0.19 0.19 99 1019.8
20260506201426 29 266 4.0 6.0 0.07 0.18 0.18 99 1020.2
20260506200922 29 266 4.0 6.0 0.07 0.18 0.18 99 1020.2
20260506200418 28 259 5.0 6.0 0.12 0.17 0.17 99 1020.3
20260506195915 28 259 5.0 6.0 0.12 0.17 0.17 99 1020.3
20260506195412 29 329 3.0 3.0 0.07 0.15 0.15 99 1020.2
20260506194909 29 329 3.0 3.0 0.07 0.15 0.15 99 1020.2
20260506194406 32 280 4.0 4.0 0.05 0.14 0.14 99 1020.2
20260506193903 32 280 4.0 4.0 0.05 0.14 0.14 99 1020.2
20260506193400 32 258 1.0 2.0 0.12 0.13 0.13 99 1020.2
20260506192856 32 258 1.0 2.0 0.12 0.13 0.13 99 1020.2